Cheyenne F E Warren, WY

10:56 PM MDT on June 23, 2017 (GMT -0600)
Cheyenne F E Warren

Weather History for KFEW - August, 2014

Change the Weather History Date:

Sunday, August 10, 2014

  Actual Average (KCYS) Record (KCYS)
Temperature  
Mean Temperature 63 °F -  
Max Temperature 75 °F 78 °F 96 °F (1969)
Min Temperature 51 °F 52 °F 34 °F (1876)
Degree Days  
Heating Degree Days 2    
Growing Degree Days 13 (Base 50)    
Moisture  
Dew Point 44 °F    
Average Humidity 51    
Maximum Humidity 87    
Minimum Humidity 26    
Precipitation  
Precipitation 0.00 in - - ()
Sea Level Pressure  
Sea Level Pressure 30.16 in    
Wind  
Wind Speed 8 mph (NNE)    
Max Wind Speed 14 mph    
Max Gust Speed 22 mph    
Visibility 10 miles    
Events      
Averages and records for this station are not official NWS values.
T = Trace of Precipitation, MM = Missing Value Source: NWS Daily Summary

Daily Weather History Graph

Daily Weather History Graph

Search for Another Location

Airport or City:

Trip Planner

Search our weather history database for the weather conditions in past years. The results will help you decide how hot, cold, wet, or windy it might be!

Date:

Astronomy

Aug. 10, 2014 Rise Set
Actual Time 6:04 AM MDT 8:04 PM MDT
Civil Twilight 5:33 AM MDT 8:34 PM MDT
Nautical Twilight 4:57 AM MDT 9:11 PM MDT
Astronomical Twilight 4:17 AM MDT 9:51 PM MDT
Moon 7:52 PM MDT (8/10) 5:59 AM MDT (8/10)
Length of Visible Light 15h 00m
Length of Day
14h 00m
Full, 100% of the Moon is Illuminated
Aug 10
Full
Aug 10
Full
Aug 17
Last Quarter
Aug 25
New
Sep 2
First Quarter

Hourly Weather History & Observations

Time (MDT) Temp. Dew Point Humidity Pressure Visibility Wind Dir Wind Speed Gust Speed Precip Events Conditions
12:56 AM 59.5 °F 47.5 °F 64% 30.09 in 10.0 mi North 8.1 mph - N/A   Clear
1:56 AM 57.4 °F 48.6 °F 72% 30.10 in 10.0 mi NNW 5.8 mph - N/A   Clear
2:56 AM 56.1 °F 48.9 °F 77% 30.10 in 10.0 mi NW 6.9 mph - N/A   Clear
3:56 AM 53.6 °F 48.0 °F 81% 30.11 in 10.0 mi NW 8.1 mph - N/A   Clear
5:56 AM 51.4 °F 47.7 °F 87% 30.13 in 10.0 mi WNW 5.8 mph - N/A   Clear
6:56 AM 53.6 °F 48.0 °F 81% 30.15 in 10.0 mi NE 2.3 mph - N/A   Clear
7:56 AM 61.0 °F 49.1 °F 65% 30.15 in 10.0 mi North 9.2 mph - N/A   Clear
8:56 AM 66.0 °F 48.6 °F 53% 30.16 in 10.0 mi NNE 10.4 mph - N/A   Clear
10:56 AM 71.1 °F 43.9 °F 38% 30.16 in 10.0 mi North 11.5 mph - N/A   Clear
11:56 AM 72.3 °F 44.1 °F 36% 30.17 in 10.0 mi North 9.2 mph - N/A   Clear
12:56 PM 74.3 °F 43.2 °F 33% 30.15 in 10.0 mi NNE 5.8 mph 12.7 mph N/A   Clear
1:56 PM 74.8 °F 40.6 °F 29% 30.14 in 10.0 mi NNE 13.8 mph 18.4 mph N/A   Clear
2:04 PM 75.2 °F 39.2 °F 27% 30.35 in 10.0 mi NE 13.8 mph 20.7 mph N/A   Clear
2:25 PM 75.2 °F 39.2 °F 27% 30.35 in 10.0 mi North 12.7 mph 21.9 mph N/A   Clear
2:56 PM 75.7 °F 39.6 °F 27% 30.13 in 10.0 mi ENE 10.4 mph 18.4 mph N/A   Clear
4:56 PM 75.7 °F 37.9 °F 26% 30.13 in 10.0 mi NE 11.5 mph 17.3 mph N/A   Clear
5:56 PM 74.8 °F 38.3 °F 27% 30.13 in 10.0 mi NE 8.1 mph - N/A   Clear
6:56 PM 72.1 °F 37.9 °F 29% 30.14 in 10.0 mi ENE 5.8 mph - N/A   Clear
7:56 PM 66.9 °F 41.7 °F 40% 30.13 in 10.0 mi ESE 4.6 mph - N/A   Clear
8:56 PM 59.7 °F 45.7 °F 60% 30.16 in 10.0 mi South 4.6 mph - N/A   Clear
9:56 PM 55.4 °F 44.1 °F 66% 30.18 in 10.0 mi SSW 5.8 mph - N/A   Clear
11:56 PM 53.2 °F 45.7 °F 76% 30.19 in 10.0 mi North 2.3 mph - N/A   Clear